Starlink 32427

operational
NORAD ID: 61848 Int'l Des: 2024-202 Owner: SPXS Country: US Constellation: starlink
LEOCIRCULAR

About Starlink 32427

Description loading...

Live Position

Loading 3D Globe...

Upcoming Passes

Altitude History

Altitude vs Time

uPlot chart will show altitude changes over time

Two-Line Element Set

1 61848U 24202D 26036.11241419 .00017670 00000-0 65185-3 0 9996
2 61848 42.9999 50.8672 0000419 249.9929 110.0878 15.27491180 70478
Epoch: Feb 5, 2026 • Age: 7 hours

Current Status

Altitude 489.0 km
Velocity 7.62 km/s
Sub-Earth Point -24.56°S, 26.06°W
Launch Date Nov 7, 2024
Age 1.2 years
Type internet

Technical Details

Classification Payload
Mass 730.00 kg
Dry Mass 700.00 kg
Total Mass 730.00 kg
Length 0.30 m
Diameter 4.10 m
Span 29.00 m
Shape Box + pan
Manufacturer SPXS
Bus Type Starlink V2M
Phase Status In Orbit
Owner/State SPXS/US

Large Constellations

Loading constellations...